Snowfall_Accumulation
0.0 0.0 0.0 0.0 0.1 0.2 0.0 0.2 2.3 1.0 1.1 0.7 0.3 0.4 0.5 0.4 0.3 0.2 0.1 0.0 0.0 0.0 0.0 0.0 0.0 0.0 0.0 0.0 0.0 0.0 0.0 0.0 0.0 0.0 0.0 0.0 0.0 0.0 0.0 0.0 0.0 0.0 0.0 0.0
0.0 0.0 0.0 0.2 0.0 0.1 0.1 0.2 0.1 0.0 1.0 0.2 0.2 0.4 0.3 0.5 0.4 0.4 0.3 0.0 0.0 0.0 0.0 0.1 0.0 0.0 0.0 0.1 0.0 0.0 0.0 0.0 0.0 0.0 0.0 0.0 0.0 0.0 0.0 0.0 0.0 0.0 0.0 0.0
1.9 0.0 0.0 0.6 0.2 0.3 0.1 0.2 0.1 2.9 1.3 0.3 0.7 0.4 0.3 0.2 0.1 0.1 0.1 0.2 0.2 0.2 0.4 0.4 0.4 0.5 0.3 0.3 0.0 0.0 0.0 0.0 0.0 0.0 0.2 0.1 0.1 0.4 0.1 0.0 0.0 0.0 0.0 0.0
1.7 0.8 1.9 1.0 0.2 0.5 0.7 0.8 0.8 0.5 0.6 0.7 0.6 0.6 0.5 0.3 0.3 0.4 1.1 0.6 0.6 0.6 0.5 1.2 0.9 0.7 0.6 0.7 0.6 0.3 0.9 0.7 0.3 0.2 0.7 0.7 1.1 1.3 0.8 0.6 0.4 0.1 0.0 0.0
3.9 2.7 1.1 1.7 3.2 5.1 3.4 2.9 1.5 1.5 1.3 0.7 0.6 0.5 0.7 0.2 0.5 1.6 2.6 3.9 1.6 1.3 1.4 1.2 1.4 1.7 1.3 1.1 0.8 0.9 3.1 3.3 4.1 3.1 2.8 2.7 3.7 5.3 3.1 2.0 1.2 0.2 0.1 0.0
2.7 4.2 8.7 6.3 1.4 0.4 0.8 3.8 1.6 0.9 0.8 1.0 0.8 0.7 2.9 1.0 0.7 1.4 2.0 2.6 3.9 2.6 2.0 1.2 2.1 1.4 1.7 2.2 2.3 3.6 3.1 3.9 3.1 4.1 5.7 7.7 5.6 4.8 5.3 3.5 2.1 2.3 1.5 0.9
2.2 4.2 2.6 1.2 2.5 0.9 3.9 4.3 1.7 0.8 0.7 0.7 0.6 0.5 3.1 2.3 2.5 2.2 2.4 1.8 1.2 2.7 4.8 3.2 1.9 2.0 2.2 3.2 3.8 5.1 3.7 3.7 3.2 2.3 2.6 3.4 4.4 5.3 5.1 4.3 4.3 3.5 3.3 3.4
4.9 5.2 3.4 1.6 2.2 1.6 2.5 1.5 0.7 0.4 0.7 0.5 1.6 3.2 5.1 4.7 2.8 1.6 1.4 1.0 0.8 1.0 1.6 2.8 2.9 2.4 2.8 2.0 3.7 3.2 3.3 3.1 3.4 4.0 4.1 4.0 3.5 4.8 5.4 5.6 5.3 4.2 3.9 3.7
1.8 3.0 1.8 1.8 2.3 1.2 0.7 0.5 0.6 0.3 0.5 0.5 1.9 4.3 5.3 4.8 3.0 1.7 1.3 1.0 0.5 0.4 0.4 0.8 1.1 1.2 2.7 3.9 2.4 2.9 2.7 3.0 3.1 3.1 3.5 4.3 4.3 4.7 4.2 3.8 4.1 5.6 6.2 7.6
0.7 1.8 0.7 0.8 0.6 0.6 0.3 0.5 0.5 0.3 0.4 0.7 5.1 6.3 5.7 2.9 1.5 1.0 1.0 0.9 0.4 0.4 0.6 0.8 0.7 0.9 1.0 1.3 1.7 2.8 2.8 2.7 2.6 2.5 2.9 2.7 3.2 4.1 4.3 4.8 5.6 5.7 6.0 6.3
0.9 0.9 0.2 0.1 0.3 0.3 0.5 0.4 0.5 0.9 1.4 2.1 2.0 2.0 1.5 1.2 1.1 0.9 0.8 0.5 0.3 0.3 0.4 0.6 0.3 0.4 0.5 0.5 0.3 0.4 0.5 1.1 1.3 1.5 2.0 2.6 3.4 3.3 3.4 5.3 5.2 6.2 8.1 7.2
2.2 0.6 0.2 0.6 0.5 0.3 0.6 1.0 0.7 0.5 1.5 2.0 0.9 1.7 1.1 1.9 2.0 1.5 1.2 0.9 0.6 0.5 0.4 0.6 0.4 0.6 0.5 0.3 0.2 0.6 0.6 0.8 1.2 1.0 1.5 1.6 1.8 2.7 nan nan nan nan nan 5.2
1.2 0.3 0.6 0.6 0.4 0.3 0.4 0.6 0.4 0.6 0.9 1.7 1.4 1.0 0.7 1.3 1.5 nan 1.0 0.8 0.7 0.7 0.4 0.2 0.5 1.1 1.4 2.4 2.5 4.1 4.4 3.8 3.5 3.0 4.7 4.9 4.4 5.9 6.7 8.5 nan nan nan nan
0.3 0.2 1.1 1.0 1.7 0.4 0.2 0.3 0.2 0.3 0.4 0.3 0.5 0.3 0.2 0.2 0.0 0.0 0.1 0.1 0.1 0.1 0.1 0.2 0.2 1.7 1.5 1.0 0.8 1.9 2.2 0.9 2.6 3.0 3.3 3.3 3.8 4.3 3.7 4.8 6.9 6.5 nan nan
1.1 0.3 0.4 0.3 0.3 0.5 0.1 0.1 0.2 0.3 0.2 0.3 0.1 0.2 0.1 0.2 0.4 0.6 0.3 0.1 0.1 0.1 0.2 0.2 0.2 1.4 1.4 1.7 2.4 3.1 2.4 3.8 4.2 5.0 4.7 3.7 2.9 3.1 3.1 4.1 4.7 5.0 4.0 2.2
0.5 0.5 0.6 0.7 0.4 0.3 0.2 0.2 0.4 0.8 1.4 2.9 2.4 1.6 1.0 0.5 0.5 0.4 0.2 0.1 0.3 1.4 1.5 5.1 2.4 4.3 3.3 2.1 2.3 2.7 3.4 1.8 2.2 3.1 3.9 3.5 3.3 3.2 2.9 3.3 3.9 4.3 4.0 4.7
0.6 0.9 0.5 0.4 0.3 0.3 0.2 0.2 0.2 0.5 0.6 0.5 0.5 0.2 0.1 0.1 0.2 0.4 1.1 1.5 3.1 4.6 4.7 5.6 7.5 6.1 5.2 4.2 2.4 3.0 3.5 2.9 1.0 2.8 2.6 2.5 3.0 3.6 2.8 3.8 4.5 3.7 6.0 9.2
0.3 0.4 0.3 0.3 0.6 0.7 1.2 0.7 0.5 0.4 0.7 0.8 2.1 3.3 4.7 4.3 2.7 4.1 5.5 6.1 7.5 8.6 7.7 8.0 6.6 5.3 4.9 4.0 2.5 1.6 2.1 2.0 2.0 2.5 2.1 3.3 2.4 1.9 2.8 3.0 3.1 4.0 5.2 13.8
0.4 0.5 0.4 0.3 0.3 0.4 0.6 1.2 1.7 2.2 4.7 5.0 6.4 8.0 9.2 11.4 10.8 11.5 10.7 12.8 13.0 7.0 8.9 5.7 1.5 2.1 2.0 1.7 0.6 1.3 2.0 3.9 2.0 1.6 1.8 5.3 5.1 2.6 4.9 6.2 5.3 7.7 5.1 5.9
0.9 0.5 0.6 0.9 0.6 2.0 2.5 5.4 5.6 6.1 7.8 7.3 11.5 12.6 10.1 12.8 12.4 12.1 8.1 7.1 6.4 6.9 3.5 2.6 1.6 1.1 1.0 0.6 1.7 1.1 2.7 3.8 2.4 4.2 6.1 3.2 9.1 14.1 9.8 7.8 7.5 9.4 15.1 11.6
3.9 4.0 4.8 5.5 8.7 8.2 9.1 9.5 7.6 7.8 7.9 9.7 10.3 12.7 11.8 8.8 8.7 10.2 6.1 2.7 4.0 2.5 1.2 0.6 1.1 1.3 0.6 0.4 0.6 6.1 5.3 8.2 8.9 6.0 9.2 12.1 15.0 10.9 12.2 13.6 12.5 15.8 18.6 14.8
5.7 5.9 8.0 7.1 7.0 6.4 7.9 6.7 4.9 6.3 6.0 8.4 12.5 14.2 10.3 4.1 5.6 5.1 6.9 2.6 2.2 2.3 1.8 1.8 1.4 3.3 2.7 4.9 1.7 7.9 6.0 4.7 6.2 6.0 6.9 10.9 12.3 18.9 19.1 16.9 17.7 19.6 19.4 19.5
5.2 4.9 5.3 6.3 5.8 5.7 3.7 3.6 6.1 5.2 9.3 8.1 9.3 5.6 3.8 2.5 2.2 3.6 4.0 0.6 1.2 3.8 1.3 3.8 4.6 5.3 5.6 9.8 9.3 10.6 10.8 10.9 10.8 10.3 11.0 17.0 16.8 26.7 15.6 14.9 17.0 17.6 23.4 16.4
4.5 3.5 3.5 3.6 2.3 0.9 1.1 1.1 0.5 1.1 7.0 2.4 4.1 7.3 2.2 5.3 7.6 1.3 1.8 5.7 5.8 16.5 10.3 10.0 8.7 6.1 6.6 12.0 12.8 15.5 14.4 15.4 16.6 19.3 9.9 9.2 24.6 21.3 17.9 24.7 15.9 18.1 20.0 17.2
1.9 1.1 1.2 0.9 0.3 1.1 0.2 0.2 0.4 0.3 0.3 0.5 0.3 0.3 0.4 1.2 7.6 4.0 6.3 6.6 6.6 5.4 8.8 7.9 6.4 7.2 16.7 17.9 17.9 18.7 18.6 16.6 19.5 21.6 15.5 22.0 20.4 28.3 26.1 21.3 24.8 25.1 26.0 22.3
0.3 0.9 0.6 0.2 0.5 0.7 0.8 0.7 1.9 1.5 1.8 5.9 4.0 12.3 8.7 4.3 4.0 4.5 6.7 6.7 4.9 6.1 6.3 16.2 19.9 19.8 18.5 12.8 16.7 17.5 13.6 11.1 14.7 15.9 18.0 17.7 17.1 14.8 18.3 16.8 22.4 27.1 33.2 35.7
1.0 0.4 1.0 0.9 1.0 1.3 1.4 1.1 3.2 5.0 6.9 10.8 9.3 8.2 5.4 9.5 11.6 7.2 7.5 11.5 12.7 12.8 15.9 19.0 16.9 11.6 10.7 16.3 14.7 13.2 12.4 13.5 11.0 10.3 21.1 24.3 23.3 30.5 27.3 27.0 30.8 32.2 29.7 26.2
Water_Equivalent
0.00 0.00 0.00 0.00 0.02 0.04 0.01 0.03 0.39 0.24 0.29 0.18 0.07 0.08 0.08 0.06 0.05 0.03 0.02 0.00 0.00 0.00 0.01 0.00 0.00 0.00 0.00 0.00 0.00 0.00 0.00 0.00 0.00 0.00 0.00 0.00 0.00 0.00 0.00 0.00 0.00 0.00 0.00 0.00
0.00 0.00 0.00 0.05 0.00 0.01 0.01 0.05 0.04 0.01 0.21 0.05 0.04 0.07 0.06 0.08 0.05 0.05 0.04 0.00 0.00 0.00 0.00 0.01 0.01 0.01 0.00 0.03 0.00 0.00 0.00 0.00 0.00 0.00 0.00 0.00 0.00 0.00 0.00 0.00 0.00 0.00 0.00 0.00
0.43 0.00 0.00 0.10 0.04 0.05 0.01 0.06 0.03 0.63 0.23 0.05 0.10 0.06 0.04 0.03 0.01 0.01 0.03 0.03 0.05 0.03 0.06 0.07 0.08 0.08 0.06 0.05 0.01 0.00 0.00 0.01 0.00 0.01 0.03 0.01 0.01 0.06 0.02 0.00 0.00 0.00 0.00 0.00
0.31 0.22 0.29 0.23 0.03 0.09 0.11 0.14 0.14 0.10 0.11 0.11 0.09 0.08 0.06 0.04 0.05 0.07 0.21 0.12 0.13 0.13 0.10 0.24 0.18 0.14 0.12 0.13 0.11 0.06 0.16 0.13 0.06 0.04 0.12 0.12 0.21 0.22 0.13 0.11 0.07 0.03 0.01 0.00
0.63 0.40 0.17 0.28 0.54 0.85 0.57 0.36 0.23 0.24 0.18 0.09 0.08 0.06 0.12 0.05 0.10 0.28 0.51 1.03 0.29 0.29 0.25 0.26 0.31 0.37 0.27 0.23 0.18 0.16 0.49 0.60 0.79 0.59 0.48 0.47 0.62 1.08 0.54 0.34 0.20 0.04 0.02 0.01
0.43 0.44 0.99 0.82 0.22 0.08 0.15 0.43 0.22 0.13 0.12 0.13 0.11 0.12 0.63 0.22 0.13 0.25 0.37 0.48 1.01 0.53 0.44 0.29 0.42 0.29 0.52 0.55 0.67 0.89 0.79 0.73 0.60 0.93 1.07 1.69 1.12 0.80 1.29 0.75 0.38 0.42 0.26 0.17
0.36 0.55 0.39 0.17 0.39 0.15 0.47 0.48 0.21 0.10 0.09 0.10 0.06 0.08 0.67 0.50 0.53 0.44 0.46 0.32 0.21 0.70 1.24 0.62 0.45 0.40 0.43 0.80 0.72 1.15 0.89 1.09 0.92 0.61 0.67 0.86 1.22 1.58 1.16 0.91 0.84 0.58 0.53 0.57
0.63 0.68 0.39 0.23 0.37 0.19 0.32 0.20 0.09 0.05 0.08 0.06 0.33 0.59 0.97 0.85 0.47 0.26 0.21 0.15 0.12 0.16 0.27 0.66 0.66 0.58 0.50 0.34 0.66 0.56 0.71 0.68 0.70 0.89 0.88 0.85 0.76 0.94 1.18 1.23 1.11 0.90 0.81 0.78
0.25 0.39 0.27 0.27 0.31 0.19 0.11 0.06 0.08 0.03 0.07 0.11 0.44 0.83 0.99 0.72 0.46 0.24 0.19 0.13 0.07 0.05 0.05 0.12 0.19 0.24 0.56 0.63 0.37 0.46 0.42 0.42 0.65 0.61 0.62 0.77 0.75 0.81 0.66 0.60 0.62 0.78 0.92 1.15
0.09 0.26 0.09 0.11 0.09 0.09 0.04 0.07 0.07 0.05 0.06 0.14 1.14 1.33 0.88 0.43 0.22 0.15 0.14 0.12 0.05 0.05 0.08 0.11 0.10 0.14 0.17 0.23 0.33 0.43 0.37 0.37 0.35 0.32 0.46 0.41 0.49 0.65 0.69 0.75 0.78 0.77 0.82 0.88
0.12 0.13 0.02 0.02 0.05 0.04 0.07 0.07 0.09 0.13 0.24 0.35 0.33 0.28 0.22 0.16 0.13 0.12 0.09 0.06 0.03 0.04 0.05 0.08 0.04 0.05 0.07 0.07 0.05 0.06 0.08 0.15 0.18 0.22 0.25 0.33 0.46 0.45 0.49 0.72 0.76 0.92 1.19 1.18
0.38 0.12 0.04 0.10 0.07 0.06 0.13 0.19 0.11 0.08 0.21 0.30 0.14 0.23 0.15 0.23 0.26 0.20 0.16 0.12 0.08 0.06 0.05 0.09 0.07 0.09 0.10 0.08 0.08 0.21 0.19 0.25 0.32 0.31 0.37 0.37 0.43 0.49 nan nan nan nan nan 1.04
0.25 0.07 0.13 0.12 0.08 0.06 0.06 0.10 0.07 0.10 0.14 0.23 0.18 0.13 0.10 0.16 0.20 nan 0.14 0.11 0.09 0.09 0.05 0.04 0.08 0.16 0.27 0.55 0.66 1.00 1.08 0.96 0.90 0.82 1.16 1.07 0.87 0.97 0.96 1.32 nan nan nan nan
0.06 0.05 0.19 0.17 0.26 0.07 0.04 0.05 0.04 0.04 0.05 0.05 0.06 0.04 0.03 0.02 0.00 0.00 0.02 0.02 0.01 0.01 0.02 0.03 0.04 0.24 0.27 0.21 0.18 0.38 0.47 0.31 0.57 0.62 0.67 0.62 0.69 0.75 0.62 0.76 1.03 0.90 nan nan
0.21 0.07 0.07 0.07 0.06 0.08 0.02 0.01 0.02 0.03 0.03 0.03 0.01 0.02 0.02 0.03 0.05 0.07 0.05 0.02 0.02 0.02 0.03 0.03 0.04 0.18 0.24 0.33 0.42 0.56 0.49 0.72 0.78 0.90 0.86 0.71 0.60 0.58 0.55 0.68 0.74 0.73 0.62 0.46
0.09 0.10 0.10 0.11 0.07 0.04 0.03 0.03 0.06 0.10 0.20 0.37 0.31 0.23 0.15 0.08 0.07 0.05 0.03 0.02 0.06 0.16 0.16 0.79 0.30 0.54 0.47 0.36 0.41 0.42 0.54 0.50 0.46 0.57 0.70 0.63 0.64 0.58 0.50 0.57 0.65 0.63 0.57 0.62
0.09 0.13 0.07 0.06 0.04 0.04 0.04 0.04 0.03 0.06 0.07 0.06 0.06 0.02 0.02 0.02 0.02 0.05 0.11 0.16 0.42 0.63 0.62 0.68 0.86 0.73 0.64 0.53 0.37 0.49 0.53 0.49 0.35 0.51 0.44 0.43 0.52 0.62 0.48 0.62 0.67 0.54 0.89 1.47
0.05 0.07 0.06 0.05 0.09 0.10 0.15 0.09 0.06 0.06 0.08 0.10 0.29 0.54 0.74 0.68 0.32 0.46 0.60 0.69 0.93 1.02 0.86 0.90 0.76 0.62 0.56 0.46 0.31 0.26 0.36 0.35 0.37 0.45 0.38 0.61 0.43 0.37 0.53 0.53 0.53 0.65 0.78 2.50
0.06 0.07 0.06 0.05 0.05 0.06 0.08 0.15 0.19 0.28 0.67 0.68 0.97 1.05 1.19 1.49 1.29 1.30 1.22 1.64 1.67 0.71 0.87 0.60 0.50 0.34 0.21 0.20 0.15 0.25 0.38 0.80 0.40 0.28 0.33 1.70 0.97 0.48 0.80 1.02 0.85 1.21 0.77 0.85
0.13 0.08 0.09 0.13 0.09 0.28 0.30 0.72 0.80 0.81 0.99 0.97 1.65 1.77 1.23 1.61 1.60 1.62 0.99 0.77 0.63 0.74 0.35 0.28 0.18 0.12 0.12 0.12 0.51 0.18 0.54 0.79 0.48 0.80 1.10 0.57 1.52 2.27 1.55 2.43 1.20 1.51 2.53 1.85
0.52 0.56 0.63 0.76 1.17 1.17 1.34 1.41 1.08 1.02 0.96 1.33 1.47 1.77 1.58 1.11 1.20 1.52 0.82 0.37 0.37 0.27 0.15 0.17 0.15 0.19 0.09 0.08 0.13 1.18 1.03 1.60 1.66 1.06 1.65 2.17 2.85 1.97 2.11 2.45 2.25 2.82 3.17 2.44
0.74 0.75 1.02 0.88 0.91 0.74 1.01 0.86 0.63 0.84 0.80 1.22 1.85 2.12 1.54 0.52 0.81 0.73 1.04 0.37 0.29 0.76 0.32 0.33 0.21 1.03 0.74 1.59 0.34 1.60 1.18 0.95 1.17 1.12 1.25 2.01 2.19 3.20 3.21 2.80 2.74 3.20 3.22 3.31
0.64 0.60 0.65 0.80 0.72 0.63 0.47 0.50 0.91 0.82 1.35 1.21 1.43 0.86 0.61 0.40 0.39 0.62 0.62 0.08 0.22 1.12 0.24 0.70 1.45 1.76 1.86 2.03 1.93 2.14 2.05 2.00 1.96 1.80 1.92 2.87 2.69 4.19 2.24 2.18 2.57 2.68 3.73 2.51
0.51 0.41 0.41 0.48 0.32 0.13 0.14 0.14 0.07 0.16 1.03 0.38 0.69 1.19 0.36 0.97 1.54 0.23 0.34 1.88 1.90 3.94 2.12 2.14 2.18 2.01 2.17 2.50 2.44 2.71 2.50 2.71 2.70 2.96 1.46 2.80 3.82 2.93 2.30 3.32 1.99 2.66 2.87 2.50
0.23 0.15 0.17 0.14 0.05 0.17 0.03 0.04 0.07 0.06 0.05 0.08 0.05 0.05 0.07 0.24 1.31 0.69 1.20 1.20 2.04 1.26 1.67 2.29 2.12 2.38 3.12 3.21 2.93 2.85 2.85 2.44 2.78 3.15 2.17 3.28 3.02 4.28 3.67 2.70 3.09 3.30 3.29 2.96
0.05 0.15 0.11 0.03 0.08 0.13 0.15 0.15 0.35 0.26 0.33 0.94 0.61 2.07 1.60 0.81 0.73 0.77 1.13 1.76 0.86 1.84 1.08 2.84 3.60 3.57 3.31 2.02 2.62 2.66 1.96 1.53 2.07 2.02 2.33 2.27 2.24 1.82 2.22 2.03 2.82 3.61 4.54 5.03
0.18 0.09 0.18 0.16 0.18 0.22 0.25 0.20 0.55 0.79 1.34 1.58 1.34 1.38 0.89 1.50 1.89 1.50 2.14 1.92 2.11 2.06 2.61 3.24 2.81 2.78 1.68 2.68 2.24 1.90 1.76 1.88 2.82 1.26 2.62 3.06 2.86 3.98 3.49 3.56 4.10 4.58 3.86 3.22
SL_Ratio
nan nan nan nan 4.0 4.5 5.2 5.8 6.0 4.2 3.9 4.1 4.4 5.1 5.7 6.0 6.1 6.3 6.9 5.0 nan 7.3 6.3 nan 2.0 0.0 0.0 5.0 nan nan nan nan nan nan nan nan nan nan nan nan nan nan nan nan
6.7 nan nan 4.4 nan 4.7 4.9 3.5 3.5 3.9 4.9 4.7 5.1 5.5 6.2 6.5 6.8 7.4 7.3 8.0 6.3 nan 5.5 4.9 3.8 4.5 6.7 4.6 0.0 nan nan 6.7 nan nan nan nan nan nan nan nan nan nan nan nan
4.3 nan 5.0 5.9 4.5 6.4 6.2 3.2 3.9 4.6 5.4 5.2 6.5 7.4 7.7 7.6 7.7 7.6 5.2 5.5 5.3 6.7 5.7 5.4 5.7 5.9 4.8 4.6 3.4 3.3 4.7 4.7 2.5 5.0 5.6 5.8 5.9 6.1 6.3 5.6 nan nan nan nan
5.6 3.7 6.6 4.2 5.1 5.4 5.9 5.4 5.4 5.2 5.4 5.9 7.4 7.6 7.5 7.0 6.6 5.7 5.0 4.9 4.5 4.8 5.1 4.8 5.0 5.3 4.7 5.0 5.2 5.2 5.7 5.5 5.2 5.1 5.6 5.7 5.3 6.1 6.1 5.9 5.9 4.6 2.6 3.3
6.2 6.7 6.6 6.0 5.9 6.0 5.9 8.2 6.4 6.4 7.2 7.6 7.5 7.9 6.0 4.8 4.9 5.7 5.0 3.8 5.7 4.6 5.4 4.5 4.6 4.7 4.8 4.6 4.8 5.6 6.3 5.5 5.2 5.2 5.9 5.8 5.9 4.9 5.7 5.8 6.0 4.2 2.7 3.3
6.3 9.5 8.8 7.7 6.2 5.3 5.5 9.0 7.1 6.9 6.8 7.8 7.2 5.5 4.6 4.8 5.3 5.8 5.3 5.3 3.9 4.9 4.5 4.2 4.9 4.8 3.3 4.1 3.4 4.0 3.9 5.3 5.1 4.4 5.3 4.5 5.0 6.0 4.1 4.7 5.6 5.4 5.7 5.3
6.1 7.6 6.7 6.9 6.5 5.5 8.3 8.9 7.9 7.6 7.3 6.6 9.0 6.6 4.6 4.6 4.8 5.0 5.2 5.7 5.7 3.8 3.9 5.2 4.3 5.0 5.2 4.0 5.3 4.4 4.1 3.4 3.5 3.7 3.9 4.0 3.6 3.4 4.4 4.7 5.1 6.1 6.3 5.9
7.8 7.7 8.8 6.8 5.9 8.4 8.0 7.5 7.8 8.1 8.2 8.5 4.8 5.5 5.3 5.5 5.9 6.2 6.6 6.6 6.4 6.4 5.9 4.2 4.3 4.2 5.7 5.8 5.6 5.7 4.6 4.5 4.9 4.5 4.7 4.7 4.6 5.1 4.6 4.5 4.8 4.7 4.8 4.8
7.1 7.7 6.7 6.7 7.3 6.4 6.4 7.6 7.5 8.1 6.4 4.4 4.4 5.2 5.3 6.7 6.5 6.9 7.0 7.4 7.5 7.7 7.4 6.6 6.0 5.2 4.9 6.2 6.6 6.4 6.6 7.0 4.8 5.1 5.6 5.5 5.7 5.8 6.3 6.3 6.6 7.2 6.7 6.6
7.3 7.0 7.5 7.0 6.8 6.7 6.5 6.8 6.9 7.2 6.6 5.2 4.5 4.7 6.5 6.7 7.1 7.2 7.3 7.6 7.2 7.1 7.6 7.9 7.3 6.5 5.9 5.5 5.3 6.6 7.5 7.4 7.5 7.9 6.3 6.6 6.4 6.3 6.3 6.4 7.2 7.3 7.3 7.2
7.6 7.1 6.5 7.1 7.1 6.8 6.2 6.1 6.2 6.4 5.9 5.9 6.1 7.1 7.0 7.6 7.9 7.9 8.2 8.0 7.8 8.1 8.2 8.1 7.2 7.0 6.8 6.3 5.9 6.6 6.5 7.0 7.1 6.8 8.0 7.7 7.4 7.5 6.9 7.4 6.8 6.8 6.8 6.1
5.7 5.1 5.1 6.2 6.1 5.3 4.9 5.2 6.1 6.5 6.9 6.6 6.6 7.4 7.4 8.1 7.8 7.7 7.9 7.7 7.9 8.1 8.0 7.4 6.6 6.4 5.4 3.9 2.8 2.7 3.1 3.2 3.7 3.4 4.1 4.3 4.3 5.5 nan nan nan nan nan 5.0
4.6 5.1 4.4 5.0 5.4 5.3 6.2 6.7 6.3 6.5 6.6 7.1 7.4 7.2 7.4 7.9 7.4 nan 7.3 7.6 8.0 7.8 6.8 5.4 5.9 6.7 5.2 4.4 3.8 4.1 4.1 3.9 3.9 3.6 4.0 4.6 5.0 6.0 7.0 6.4 nan nan nan nan
4.3 4.6 5.7 5.7 6.5 6.1 6.2 7.0 6.2 6.9 7.2 7.3 7.3 7.1 7.4 7.9 8.3 7.1 7.0 6.4 6.4 5.9 6.1 5.9 5.8 7.1 5.5 4.9 4.6 5.0 4.7 3.0 4.6 4.8 4.9 5.4 5.5 5.8 5.9 6.3 6.7 7.3 nan nan
5.3 4.8 5.3 5.1 5.4 6.6 6.8 7.3 8.3 8.8 8.6 8.7 8.1 8.1 7.2 7.2 7.5 7.7 6.6 6.0 5.8 6.0 6.3 5.8 6.0 7.9 6.0 5.2 5.6 5.6 5.0 5.3 5.4 5.5 5.4 5.3 4.9 5.4 5.6 6.0 6.3 6.8 6.4 4.9
5.0 5.3 5.9 6.1 5.9 5.9 5.8 5.9 5.9 7.8 6.9 7.9 7.9 6.7 6.3 6.0 7.0 7.5 7.2 6.8 6.2 8.9 9.5 6.5 8.0 8.1 7.1 5.8 5.7 6.3 6.3 3.7 4.8 5.4 5.6 5.5 5.2 5.6 5.8 5.8 6.0 6.8 7.1 7.6
6.3 7.1 6.9 7.1 6.8 6.7 6.4 6.4 6.6 7.5 7.8 7.9 7.4 6.4 6.7 6.8 7.1 8.4 10.0 9.5 7.5 7.4 7.5 8.2 8.7 8.4 8.1 8.0 6.5 6.0 6.5 6.0 3.0 5.6 5.9 5.9 5.7 5.7 5.9 6.1 6.7 6.8 6.8 6.3
5.6 5.6 5.7 6.0 6.8 7.0 7.8 7.9 7.7 7.5 8.3 8.1 7.2 6.1 6.3 6.4 8.4 8.9 9.1 8.8 8.1 8.4 9.0 8.9 8.7 8.6 8.6 8.6 8.0 6.0 6.0 5.7 5.5 5.4 5.5 5.4 5.6 5.3 5.4 5.7 5.8 6.2 6.7 5.5
6.9 7.1 6.6 6.4 6.4 7.0 7.3 8.4 8.8 7.9 7.0 7.3 6.7 7.6 7.8 7.6 8.4 8.8 8.8 7.8 7.8 9.8 10.2 9.4 3.0 6.1 9.5 8.3 4.2 5.3 5.4 4.8 5.1 5.7 5.4 3.2 5.3 5.6 6.2 6.0 6.2 6.4 6.6 6.9
7.0 6.6 6.5 7.0 6.3 6.9 8.4 7.4 7.0 7.5 7.9 7.5 7.0 7.1 8.2 7.9 7.8 7.5 8.1 9.3 10.1 9.3 9.9 9.3 8.5 8.7 8.8 5.4 3.3 5.8 4.9 4.8 5.0 5.2 5.6 5.6 6.0 6.2 6.3 3.2 6.2 6.2 6.0 6.3
7.6 7.2 7.5 7.2 7.4 7.0 6.8 6.7 7.0 7.6 8.2 7.3 7.0 7.2 7.5 7.9 7.2 6.7 7.5 7.1 10.8 9.2 8.1 3.4 7.2 6.7 6.3 5.3 4.2 5.1 5.1 5.1 5.4 5.7 5.6 5.6 5.3 5.6 5.8 5.5 5.5 5.6 5.9 6.1
7.7 7.9 7.8 8.1 7.7 8.6 7.8 7.8 7.8 7.5 7.5 6.9 6.8 6.7 6.7 7.9 6.9 6.9 6.6 7.2 7.4 3.0 5.4 5.5 6.3 3.1 3.6 3.1 5.0 4.9 5.1 4.9 5.2 5.4 5.5 5.4 5.6 5.9 5.9 6.0 6.5 6.1 6.0 5.9
8.1 8.2 8.2 7.9 7.9 9.0 8.0 7.3 6.7 6.3 6.9 6.7 6.5 6.5 6.4 6.3 5.8 5.9 6.4 7.8 5.3 3.3 5.1 5.4 3.2 3.0 3.0 4.8 4.9 5.0 5.3 5.5 5.5 5.7 5.7 5.9 6.3 6.4 7.0 6.8 6.6 6.6 6.3 6.5
8.7 8.7 8.4 7.6 7.0 6.8 7.7 7.7 6.8 7.2 6.9 6.4 6.0 6.1 6.2 5.5 4.9 5.3 5.3 3.0 3.0 4.2 4.9 4.7 4.0 3.0 3.0 4.8 5.2 5.7 5.8 5.7 6.2 6.5 6.8 3.3 6.4 7.3 7.8 7.4 8.0 6.8 7.0 6.9
8.4 7.3 7.2 6.6 6.1 6.1 6.2 6.3 6.1 5.8 5.6 5.6 6.4 6.1 6.0 4.9 5.8 5.8 5.2 5.5 3.2 4.3 5.2 3.4 3.0 3.0 5.3 5.6 6.1 6.6 6.5 6.8 7.0 6.8 7.1 6.7 6.8 6.6 7.1 7.9 8.0 7.6 7.9 7.5
6.3 5.8 5.7 6.5 5.5 5.2 5.1 4.9 5.4 5.5 5.5 6.3 6.5 5.9 5.4 5.3 5.5 5.9 5.9 3.8 5.7 3.3 5.9 5.7 5.5 5.5 5.6 6.3 6.4 6.6 6.9 7.2 7.1 7.9 7.7 7.8 7.7 8.1 8.2 8.2 8.0 7.5 7.3 7.1
5.8 4.4 5.6 5.7 5.8 6.1 5.7 5.4 5.8 6.3 5.2 6.8 7.0 5.9 6.1 6.4 6.1 4.8 3.5 6.0 6.0 6.2 6.1 5.9 6.0 4.2 6.4 6.1 6.5 7.0 7.0 7.2 3.9 8.1 8.1 7.9 8.1 7.7 7.8 7.6 7.5 7.0 7.7 8.1